^^
Saratoga-Weather Station Historical Data
Daily Summary for March 01, 2021 Units:  Metric    English   Both
Daily Weekly Monthly Yearly Custom
  High: Low: Average:
Temperature: 3.6 °C 2.3 °C 2.9 °C
Dew Point: -0.3 °C -0.9 °C -0.6 °C
Humidity: 81% 75% 78%
Wind Speed: 1.4km/h 0km/h 0.2km/h
Wind Gust: 3.2km/h - -
Wind- - ESE
Pressure: 1031.5 hPa 1031.2 hPa -
Precipitation: 0.0 mm    
Historical Graphs
 
 
Tabular Data for March 01, 2021
Time Temperature Dew Point Pressure Wind Wind Speed Wind Gust Humidity Rainfall Rate (Hourly) solar
00:04 3.5 °C -0.3 °C 1031.5 hPa Calm   3.2 km/h 76% 0.0 mm 0 W/m2
00:09 3.5 °C -0.5 °C 1031.5 hPa Calm   1.6 km/h 75% 0.0 mm 0 W/m2
00:14 3.5 °C -0.5 °C 1031.5 hPa Calm   3.2 km/h 75% 0.0 mm 0 W/m2
00:19 3.6 °C -0.4 °C 1031.5 hPa Calm   1.6 km/h 75% 0.0 mm 0 W/m2
00:24 3.6 °C -0.4 °C 1031.5 hPa Calm   3.2 km/h 75% 0.0 mm 0 W/m2
00:29 3.5 °C -0.5 °C 1031.5 hPa ESE 1.4 km/h 1.6 km/h 75% 0.0 mm 0 W/m2
00:34 3.4 °C -0.6 °C 1031.5 hPa Calm   1.6 km/h 75% 0.0 mm 0 W/m2
00:39 3.2 °C -0.6 °C 1031.5 hPa Calm     76% 0.0 mm 0 W/m2
00:44 3.2 °C -0.4 °C 1031.5 hPa Calm   1.6 km/h 77% 0.0 mm 0 W/m2
00:49 3.1 °C -0.5 °C 1031.5 hPa Calm     77% 0.0 mm 0 W/m2
00:54 2.9 °C -0.7 °C 1031.5 hPa Calm   1.6 km/h 77% 0.0 mm 0 W/m2
00:59 2.9 °C -0.7 °C 1031.5 hPa Calm     77% 0.0 mm 0 W/m2
01:04 2.8 °C -0.7 °C 1031.5 hPa Calm   3.2 km/h 78% 0.0 mm 0 W/m2
01:09 2.7 °C -0.6 °C 1031.5 hPa Calm     79% 0.0 mm 0 W/m2
01:14 2.6 °C -0.7 °C 1031.5 hPa Calm   3.2 km/h 79% 0.0 mm 0 W/m2
01:19 2.4 °C -0.9 °C 1031.5 hPa ESE 1.4 km/h 1.6 km/h 79% 0.0 mm 0 W/m2
01:24 2.4 °C -0.9 °C 1031.5 hPa Calm   1.6 km/h 79% 0.0 mm 0 W/m2
01:29 2.4 °C -0.7 °C 1031.5 hPa Calm   1.6 km/h 80% 0.0 mm 0 W/m2
01:34 2.3 °C -0.8 °C 1031.2 hPa Calm     80% 0.0 mm 0 W/m2
01:44 2.3 °C -0.8 °C 1031.2 hPa Calm     80% 0.0 mm 0 W/m2
01:49 2.3 °C -0.6 °C 1031.2 hPa Calm   1.6 km/h 81% 0.0 mm 0 W/m2
01:54 2.3 °C -0.6 °C 1031.2 hPa ESE 1.4 km/h 3.2 km/h 81% 0.0 mm 0 W/m2
01:59 2.3 °C -0.6 °C 1031.2 hPa Calm     81% 0.0 mm 0 W/m2
02:04 2.4 °C -0.5 °C 1031.2 hPa Calm   3.2 km/h 81% 0.0 mm 0 W/m2
Juneau County Weather
Compliments of Weather Underground - 2 mb